Dewpoint
58 58 58 58 57 57 56 56 55 53 53 54 54 55 55 55 53 49 43 42 47 55 52 36 34 32 28 27 28 20 20 16 15 19 37 45 45 49 52 54 56 58 57 59 62
58 58 58 58 57 57 56 56 54 54 53 54 55 55 55 55 49 47 50 54 56 56 38 29 30 29 22 23 24 22 18 17 18 30 41 45 44 46 50 53 54 55 59 60 61
58 58 58 57 57 57 56 55 55 54 53 53 54 54 55 53 46 41 59 57 58 58 34 32 30 29 26 24 23 21 19 19 18 41 42 43 44 46 49 49 53 53 55 58 59
58 58 57 57 57 57 56 55 55 53 52 53 53 54 54 50 31 33 61 60 58 52 35 28 28 29 25 23 22 19 18 17 24 44 43 42 42 39 44 48 55 55 56 57 57
57 57 57 57 57 56 55 55 54 53 53 53 54 54 49 39 36 48 60 60 53 38 30 29 32 31 24 18 19 18 19 19 29 43 42 44 40 45 48 53 56 56 56 55 56
57 56 56 56 56 56 55 55 54 53 53 53 54 53 46 23 42 50 46 44 37 32 31 30 32 31 28 24 24 27 26 40 42 42 43 41 44 45 47 56 56 55 53 52 52
58 57 56 56 56 55 55 54 53 53 53 53 53 49 46 23 42 45 41 36 32 30 31 33 33 32 31 26 31 29 27 39 41 42 41 40 36 43 48 55 55 54 54 53 52
58 57 56 55 55 55 54 53 53 53 53 53 52 47 42 41 46 44 40 37 33 30 31 31 32 32 33 29 29 22 21 25 38 41 39 32 31 38 49 51 53 55 55 55 54
58 57 56 55 54 54 53 53 53 53 53 53 47 46 40 45 42 43 39 35 32 30 31 29 32 31 30 28 22 22 16 21 33 36 36 31 29 38 47 50 51 54 55 53 52
56 57 56 55 54 53 52 53 53 52 51 49 47 34 35 33 38 35 37 35 33 35 34 31 31 28 28 24 20 21 21 23 20 20 33 35 29 39 43 48 49 49 53 54 51
56 57 56 55 54 52 50 48 44 45 46 35 27 28 31 35 35 34 32 32 36 33 31 34 28 26 26 28 28 27 26 25 24 24 26 28 26 37 41 43 44 45 47 54 54
55 56 56 55 53 52 49 44 41 43 38 43 42 39 40 39 36 31 31 28 32 29 35 29 28 28 30 28 29 28 26 25 26 23 22 24 23 35 41 41 43 43 44 45 54
55 56 56 53 52 51 47 45 46 45 35 39 44 43 42 41 37 30 28 30 30 30 30 28 27 33 30 27 27 27 27 26 26 23 21 23 22 24 28 40 41 44 43 44 47
53 55 54 52 48 48 48 49 49 46 36 36 42 42 41 33 29 31 28 30 32 29 32 30 32 31 30 28 27 25 28 28 25 23 11 20 17 26 27 34 40 42 43 42 44
52 54 53 52 47 49 49 49 48 48 16 24 40 39 30 27 28 28 29 31 28 32 30 27 32 29 28 26 29 27 32 27 28 26 23 24 19 21 30 27 36 40 42 43 42
52 53 53 51 50 48 49 51 52 32 18 31 35 32 27 28 28 24 28 30 31 32 33 28 32 29 27 30 30 31 29 29 31 28 22 26 22 22 27 26 30 39 40 41 44
52 54 53 51 45 51 52 51 38 27 27 30 29 30 26 27 27 26 24 27 27 26 26 28 28 29 33 27 29 27 24 20 19 23 21 28 25 25 25 29 30 33 37 38 41
51 53 53 51 51 50 54 47 33 33 34 36 29 29 24 26 26 25 22 21 24 26 27 24 22 29 34 28 27 29 24 23 18 21 20 29 27 25 29 31 32 32 34 38 44
51 52 52 53 51 49 50 39 31 34 35 24 26 26 26 26 24 23 22 20 21 25 22 26 25 33 35 33 29 28 24 28 28 30 26 26 26 24 29 32 37 37 40 44 47
46 48 48 52 51 46 45 37 37 39 39 38 24 26 24 23 22 22 22 23 22 25 27 28 23 31 33 34 32 29 29 22 27 21 21 21 20 24 27 27 32 38 37 45 49
46 43 47 51 51 43 37 36 37 37 39 39 33 26 25 23 22 21 21 21 25 32 29 35 25 26 35 30 26 27 25 25 26 25 20 20 22 23 27 29 29 33 37 42 49
43 37 50 51 42 38 34 36 38 35 40 40 40 36 28 26 24 22 21 19 26 36 29 34 30 27 27 31 32 29 28 27 25 20 26 25 22 25 23 27 31 35 37 43 49
39 42 51 48 36 35 36 36 36 34 36 37 38 38 34 27 22 26 26 36 37 32 33 35 29 25 24 26 27 28 28 31 30 28 24 22 22 25 25 22 24 34 37 43 47
41 37 44 46 40 35 34 35 37 38 36 39 39 40 37 30 32 31 33 38 39 36 41 35 29 26 24 24 26 26 29 29 29 26 25 25 24 25 25 26 25 24 31 42 47
41 36 40 38 38 38 34 34 35 34 37 36 36 38 37 32 30 31 37 37 38 38 36 32 26 25 25 24 30 27 27 30 27 27 25 26 27 27 25 23 24 25 28 36 44
38 40 41 39 38 37 35 32 34 35 36 35 31 35 33 34 30 29 35 35 33 35 33 34 27 30 29 29 27 25 25 25 26 26 28 26 25 28 27 29 29 29 30 32 35
42 43 43 37 37 36 33 33 32 35 36 34 35 36 36 36 36 32 37 37 34 34 33 31 30 28 24 26 23 23 24 24 24 26 26 22 24 28 29 29 30 33 33 34 36
Lifted_Index
7 8 8 8 8 9 10 10 11 11 11 11 11 10 10 10 8 6 4 3 3 5 5 5 4 4 4 3 2 2 2 1 1 -1 -2 -3 -2 -2 -1 -2 -3 -2 -2 -2 -2
7 7 8 8 8 9 10 10 11 11 11 11 11 10 10 9 7 4 3 3 3 4 5 4 3 3 3 2 2 2 2 1 1 -1 -2 -2 -2 -1 -1 -2 -2 -2 -2 -2 -2
6 7 7 8 8 9 9 10 10 10 10 11 11 10 10 8 5 3 2 2 3 3 4 3 2 2 2 1 1 1 1 1 1 -1 -2 -2 -1 -1 -1 -1 -1 -1 -1 -1 -1
5 6 7 8 8 9 9 10 10 10 10 11 11 10 10 8 5 3 2 2 2 3 3 2 1 1 1 1 1 1 1 1 0 -1 -2 -1 -1 -0 -0 -1 -1 -1 -0 -0 -0
4 5 6 7 8 9 10 10 10 10 10 11 11 11 9 7 5 3 2 2 3 3 3 2 1 0 0 0 0 -0 -0 -0 -0 -1 -1 -1 -1 -1 -1 -1 -1 -0 0 0 1
4 4 5 7 8 9 10 10 10 10 10 11 11 11 9 6 4 3 3 3 4 3 2 1 1 -0 -0 -0 -0 -1 -1 -1 -1 -1 -1 -1 -1 -1 -1 -1 -1 -1 -0 0 1
5 5 5 6 8 9 10 10 10 10 10 11 11 10 9 6 4 3 3 3 3 3 2 1 1 -0 -0 -0 -1 -1 -1 -1 -1 -1 -1 -1 -1 -2 -2 -2 -2 -2 -1 -1 -1
5 5 4 5 7 9 10 10 10 10 10 11 11 9 8 6 5 3 3 3 2 2 2 1 1 0 -0 -0 -1 -0 -0 -0 -1 -1 -1 -1 -2 -2 -2 -3 -3 -3 -2 -2 -2
5 5 4 4 6 8 10 10 10 9 10 10 10 9 7 6 4 3 3 2 2 1 1 1 1 0 -0 -1 -0 -0 1 0 -1 -1 -1 -1 -2 -3 -3 -3 -3 -3 -3 -2 -2
5 5 4 4 5 7 9 10 9 8 8 8 9 8 7 5 4 3 3 2 1 1 0 1 1 1 0 -0 -0 0 1 0 -0 -0 -1 -1 -2 -3 -3 -4 -4 -4 -3 -3 -2
6 6 5 4 5 7 9 9 8 6 6 7 7 7 6 5 4 4 3 3 2 1 0 0 0 0 0 -0 -0 0 0 0 0 0 0 -0 -1 -2 -3 -4 -4 -4 -4 -3 -3
7 6 5 5 5 7 9 8 7 6 6 6 6 6 5 4 4 4 3 3 2 1 1 1 1 0 0 0 0 0 0 0 0 0 0 0 -1 -2 -3 -3 -4 -4 -3 -3 -3
8 7 5 5 5 7 8 7 6 6 6 6 6 5 5 4 4 4 4 3 2 2 2 1 1 0 0 0 0 0 0 0 0 0 0 0 0 -1 -2 -3 -3 -3 -3 -3 -3
8 7 5 5 5 6 6 5 5 5 5 5 5 5 5 5 4 4 4 3 2 2 2 2 1 1 0 1 1 0 0 0 0 0 0 0 1 0 -1 -1 -2 -2 -2 -2 -2
8 6 5 4 5 5 4 4 4 3 3 4 5 5 5 5 5 4 4 3 3 2 2 2 2 1 1 1 1 0 0 0 0 0 -0 0 1 1 1 0 -1 -1 -2 -2 -2
7 6 5 4 4 4 4 3 3 3 3 4 4 5 5 5 5 5 4 4 3 3 3 2 2 2 1 1 1 1 1 1 1 0 0 0 0 1 1 1 1 -0 -1 -1 -2
7 6 5 3 3 4 3 2 3 4 4 4 4 4 5 5 5 4 4 3 3 3 3 2 2 1 1 1 1 1 1 1 1 0 1 0 1 1 1 1 1 1 -0 -1 -1
7 6 4 3 3 3 3 3 4 5 5 4 4 4 4 5 5 4 4 3 2 2 2 2 2 1 1 1 1 1 1 1 1 1 1 1 1 1 1 0 1 1 0 0 -0
8 7 5 3 2 3 3 4 5 5 4 3 3 3 4 4 4 4 4 3 2 2 2 2 2 1 1 0 0 0 1 1 1 1 1 1 1 1 0 0 0 0 0 0 0
8 7 5 2 1 2 4 5 6 4 3 3 3 3 3 4 4 4 4 3 2 2 2 2 1 1 1 0 0 0 0 0 0 0 0 0 1 1 0 0 1 1 0 -0 -0
8 7 5 3 1 3 6 7 6 4 2 2 3 3 3 4 4 4 3 3 2 2 2 2 2 1 1 0 0 0 0 0 0 0 0 1 1 1 1 1 2 1 1 -0 -1
8 7 5 3 3 5 7 7 6 4 2 3 2 3 3 3 4 3 3 2 2 1 1 2 2 1 1 0 0 0 0 0 0 0 0 1 1 1 1 1 2 2 1 0 -0
8 7 5 3 4 6 7 7 5 4 3 3 3 2 2 3 3 3 2 2 1 1 1 1 1 1 1 0 0 -0 -0 -0 -0 0 0 1 1 1 1 1 2 2 1 1 0
7 6 5 4 5 7 7 7 5 4 3 3 3 2 2 2 2 2 2 1 1 1 1 1 0 1 1 0 -0 -0 -0 -0 -0 -0 0 1 1 1 1 1 2 2 2 1 1
7 6 5 5 6 7 7 7 5 4 3 4 3 2 2 2 2 2 1 1 1 0 0 0 0 0 0 0 0 0 0 -0 -0 0 0 1 1 1 1 1 2 2 2 2 1
7 6 5 5 6 7 7 7 6 4 3 4 3 2 2 1 1 1 1 1 0 0 0 0 0 0 1 1 1 1 1 1 1 1 0 0 1 1 1 1 1 2 2 2 1
7 6 5 5 6 6 7 8 6 4 3 3 3 2 2 1 1 1 1 0 -0 0 0 0 0 1 1 1 1 1 1 1 2 1 1 0 0 1 1 1 2 2 2 2 2